User: anonymous   Login
Location: Unspecified
(0.0000°N, 0.0000°E)
Time: 12:17:55
(UTC+01:00)
Language:

Ariane H10 - Orbit

View from above orbital plane
View from above orbital plane
View from above satellite
View from above satellite

Ground track
Ground track

The orbit data is extracted from the following two-line orbital elements,

1 19122U 88040B   17326.83737645  .00000029  00000-0  10680-2 0  9995
2 19122   7.2158 107.7434 7123121 263.2107  18.5725  2.33385382200641
Epoch (UTC): 22 November 2017 20:05:49
Eccentricity: 0.7123121
inclination: 7.2158°
perigee height: 528 km
apogee height: 34730 km
right ascension of ascending node: 107.7434°
argument of perigee: 263.2107°
revolutions per day: 2.33385382
mean anomaly at epoch: 18.5725°
orbit number at epoch: 20064

The dashed part of the orbit path shows where the satellite is in the earth's shadow,  

DLR